Wind_Speed
78 83 87 85 84 87 90 92 92 91 89 88 88 87 86 88 88 89 96 102 105 99 97 103 104 98 98 96 88 82 80 78 76 79 80 82 82 79 78 78 79 80 78 77 74 72 72 68 60 55 53 52 52 53 53 55 59 61 58 56 55 55 53 52 52 51 47 44 42 40 38 37 35 32 31 32 33 32 31 31 32 31 31 31 33 37
76 82 84 83 85 88 91 94 95 92 90 90 93 94 93 95 95 94 99 104 106 103 101 105 106 98 98 99 91 83 80 76 74 76 79 82 80 77 77 78 79 81 81 80 77 74 74 71 62 55 52 51 51 53 54 54 59 62 59 57 56 55 54 52 52 50 48 45 42 40 39 37 35 34 33 33 33 34 33 32 32 32 33 33 33 34
77 82 82 83 86 88 90 94 96 93 90 91 96 100 98 100 101 99 102 106 107 106 106 108 107 99 99 100 92 84 79 74 71 73 78 81 78 76 77 79 80 82 82 82 80 76 74 73 67 57 52 50 50 52 54 55 58 61 61 60 58 56 55 53 52 50 49 46 42 39 38 38 35 35 35 34 34 34 35 34 34 33 33 34 34 34
81 84 82 84 88 90 91 95 98 95 91 92 100 105 103 104 107 106 108 111 109 108 109 111 108 101 101 98 90 85 78 72 70 73 76 77 74 74 76 79 81 80 81 83 82 78 75 73 69 61 53 50 49 50 53 55 57 61 63 62 59 57 55 54 52 51 49 46 43 39 38 38 36 35 35 35 35 35 35 36 36 36 35 34 34 35
86 86 86 88 91 93 94 96 100 99 93 93 101 109 108 108 112 113 116 117 114 110 110 111 110 105 103 96 88 84 77 70 71 73 72 71 69 72 74 77 79 78 80 83 83 80 75 72 70 64 56 49 47 49 52 55 57 60 62 63 60 57 55 54 52 51 49 46 44 41 38 37 37 35 35 36 36 36 35 36 37 37 38 37 36 35
88 89 90 93 95 96 96 98 103 104 99 97 103 111 113 113 116 118 122 123 121 116 110 110 112 111 106 96 87 84 78 71 70 71 71 70 69 71 73 77 79 78 78 80 82 82 76 71 69 66 59 50 45 48 51 54 57 59 60 62 60 56 56 54 53 51 48 46 45 43 39 37 37 36 36 36 36 36 36 36 36 37 38 38 38 37
90 90 93 97 96 97 98 101 106 109 106 104 107 112 115 118 120 122 126 127 127 123 113 109 114 116 109 96 87 85 80 72 69 70 71 71 70 72 74 78 80 79 78 77 78 82 78 71 68 66 62 54 46 46 51 53 55 58 59 61 60 57 56 55 53 49 47 47 46 44 41 38 37 36 37 36 36 37 38 37 38 37 37 38 38 38
92 93 96 100 99 98 101 104 109 112 112 112 113 116 119 123 124 127 130 130 131 128 116 109 115 119 111 97 88 86 83 77 73 71 70 71 72 74 77 79 80 80 79 77 76 79 80 73 66 64 63 57 49 46 49 52 53 55 57 59 60 58 57 55 52 48 46 47 46 45 43 38 37 37 38 37 36 38 38 39 40 38 38 38 38 38
94 97 101 103 101 101 104 107 112 115 117 118 120 122 124 126 128 131 133 132 133 129 117 111 116 119 112 100 92 90 89 86 82 75 70 72 75 77 80 81 80 79 77 77 76 76 79 75 66 63 63 59 52 47 48 51 52 52 54 56 58 58 57 55 52 48 47 47 46 45 43 40 38 37 37 36 37 38 39 40 40 39 38 38 38 38
95 100 104 105 103 105 106 109 114 118 120 123 126 127 129 130 131 135 136 135 137 131 120 116 118 120 114 103 97 95 94 93 89 79 74 74 75 77 81 80 77 76 76 78 77 75 77 77 69 64 64 61 54 49 50 52 50 50 52 53 56 58 56 55 53 50 48 47 46 44 43 42 39 38 37 36 37 39 39 40 40 39 38 38 38 38
97 103 106 106 107 109 110 112 116 120 124 128 131 133 134 134 135 139 138 138 138 131 122 118 117 118 114 103 100 99 97 98 94 85 77 72 72 75 77 78 75 74 77 78 78 78 78 78 72 66 64 64 58 51 52 53 50 50 51 52 55 57 56 55 54 51 49 48 46 44 44 43 40 38 37 36 38 39 40 40 40 39 38 37 37 37
98 104 106 107 110 113 115 117 120 123 128 132 135 138 140 139 140 142 138 135 135 129 122 117 114 115 112 103 102 101 98 98 95 88 79 70 69 72 73 75 75 73 73 73 74 79 81 79 74 67 65 65 60 54 53 54 52 51 51 52 55 56 56 56 55 52 50 49 47 46 45 43 40 39 37 38 39 40 40 41 40 38 37 37 37 37
95 100 106 110 113 117 121 123 123 126 130 134 137 141 143 144 146 146 140 136 136 132 125 119 117 116 112 106 106 105 101 98 94 89 81 73 69 70 71 72 73 71 70 70 72 77 80 79 76 70 66 65 61 55 55 56 53 50 50 51 54 56 58 58 56 53 51 49 48 47 46 43 41 39 39 39 41 41 41 41 39 38 37 37 38 38
91 88 100 112 114 118 124 126 129 131 133 136 140 142 144 147 152 152 147 145 143 138 131 124 121 118 113 110 110 108 103 100 98 93 86 78 69 67 69 69 70 70 72 76 79 80 79 80 82 76 67 65 63 58 57 57 52 49 51 53 55 58 60 60 57 55 52 50 49 48 47 45 42 40 39 40 41 42 42 42 40 39 38 38 38 39
98 85 95 112 115 119 124 127 133 137 138 141 142 143 146 150 156 157 154 151 146 142 135 126 121 119 115 113 110 107 103 101 101 99 96 89 75 66 65 65 67 72 76 79 82 84 85 85 86 78 65 63 64 60 58 57 52 49 51 55 57 60 62 61 57 56 54 52 50 49 48 46 44 42 41 41 42 43 43 43 42 40 40 40 40 40
111 96 100 114 119 123 128 130 135 139 142 145 144 145 147 150 155 157 155 151 146 144 139 128 122 119 116 113 109 106 103 101 101 100 99 96 86 73 63 60 62 68 72 74 75 81 86 87 86 76 65 64 64 61 59 57 52 49 51 56 59 61 63 62 59 57 55 54 51 50 49 47 45 44 43 42 43 43 44 43 42 42 41 42 41 41
123 109 107 117 122 127 131 133 137 141 144 147 145 147 150 152 154 155 153 150 146 145 140 131 124 120 117 112 108 105 101 99 99 98 97 97 94 85 70 58 56 60 64 66 68 73 79 84 85 75 66 64 61 57 57 55 51 50 52 57 60 61 63 62 60 59 56 54 52 51 50 48 47 46 45 45 45 45 45 44 43 42 42 42 42 42
134 125 117 120 126 129 133 136 139 142 145 146 147 150 152 153 154 154 152 149 146 145 140 131 123 119 117 112 107 104 100 97 98 98 97 95 94 91 78 63 56 55 58 62 65 67 71 79 81 73 64 63 62 57 55 54 53 53 55 59 61 62 63 63 62 60 57 55 53 52 51 50 49 49 48 47 46 46 46 46 45 44 43 43 43 43
140 137 129 126 130 134 135 139 143 143 144 145 148 152 153 154 155 152 152 149 146 145 140 129 120 116 113 109 106 104 100 98 98 98 98 95 92 91 83 70 61 54 52 57 64 66 68 76 80 74 64 63 66 63 57 53 54 55 56 60 63 64 64 65 64 61 58 56 54 52 52 52 52 51 50 49 47 47 47 47 47 46 46 45 44 44
143 143 138 133 134 137 138 142 145 145 147 149 151 152 153 155 154 150 150 147 144 143 138 129 119 112 107 106 107 107 103 100 99 97 97 94 91 88 82 73 65 58 50 50 61 69 69 73 78 75 66 64 67 66 60 55 55 58 59 61 65 67 67 66 63 61 58 57 56 54 54 55 55 54 53 51 49 48 48 49 48 48 47 46 45 45
144 145 144 140 138 139 140 142 145 149 152 153 154 154 154 155 152 151 149 143 141 141 137 131 120 108 104 105 108 109 106 102 99 96 93 90 86 82 77 71 65 61 50 45 56 68 69 70 74 73 66 65 68 67 63 59 59 62 64 64 65 68 68 65 63 62 61 60 59 57 56 57 58 57 55 54 52 50 51 51 50 50 49 48 47 47
144 146 147 145 144 143 142 142 146 152 155 156 157 157 157 155 152 152 147 139 137 135 132 131 120 108 107 107 104 105 103 98 94 92 88 82 79 76 73 68 63 59 51 44 52 63 67 69 69 68 64 64 68 68 65 63 63 64 65 66 66 67 67 65 63 62 63 64 63 61 59 60 60 59 57 55 54 52 52 53 53 53 52 50 50 50
146 148 150 151 151 148 146 145 149 154 156 157 159 157 155 154 151 150 146 139 134 127 123 126 120 111 111 107 99 97 96 92 88 86 81 74 70 69 68 64 59 55 49 45 52 60 67 68 64 62 60 63 70 69 65 65 65 64 65 68 68 66 66 67 66 64 64 66 66 64 63 62 61 60 59 57 55 54 54 55 56 56 55 54 53 52
148 150 153 156 155 153 151 150 152 155 156 158 158 155 152 150 148 145 143 139 132 122 120 123 119 111 110 104 94 90 89 87 84 82 75 65 61 61 62 59 54 52 46 46 54 61 66 67 60 56 59 65 71 70 67 68 67 66 66 68 69 68 67 69 69 69 68 68 67 66 65 63 62 61 60 59 58 57 58 58 57 58 57 57 56 54
151 153 156 158 159 159 158 156 156 158 160 160 158 154 151 148 145 141 139 135 128 122 122 124 119 110 104 97 91 88 85 80 77 75 70 62 57 55 56 55 52 50 46 47 57 62 65 66 58 54 61 69 72 72 70 71 70 69 68 68 68 69 69 69 69 69 68 68 68 67 66 64 63 62 62 62 61 61 61 61 59 59 59 58 57 55
154 154 156 159 163 166 165 163 164 166 167 165 161 156 153 149 144 142 138 132 128 125 123 123 119 108 98 92 89 87 84 75 70 68 66 63 58 52 52 52 50 50 48 49 59 62 63 66 59 57 65 70 72 74 74 74 74 73 70 69 68 68 68 66 65 64 65 66 66 66 66 65 64 64 65 66 65 64 64 63 61 60 60 60 58 56
157 156 156 159 164 167 167 168 170 171 170 167 162 157 153 148 143 140 135 131 131 130 123 117 114 105 95 92 89 84 78 72 68 65 62 61 57 50 49 48 47 49 49 50 58 60 61 64 62 60 66 70 73 76 77 77 77 76 73 71 69 68 66 65 64 65 66 67 68 68 67 66 65 66 68 69 69 68 67 66 64 62 61 61 60 59
158 157 157 160 164 166 167 169 170 170 168 163 158 154 149 144 140 134 130 130 132 129 120 112 108 103 95 93 90 80 70 66 66 62 59 59 55 49 48 46 45 48 48 50 57 59 59 64 64 62 68 72 73 76 77 77 77 77 75 74 73 72 71 69 69 70 70 70 70 70 69 69 69 70 72 73 72 71 69 67 66 64 63 64 63 63
159 159 160 163 166 167 168 169 168 166 163 157 153 149 144 140 135 128 127 127 124 121 116 109 104 100 95 93 89 77 65 61 60 57 56 57 54 50 48 46 44 46 46 50 57 60 61 65 65 64 71 75 75 76 76 76 78 78 77 77 77 76 76 76 76 75 74 73 72 71 71 72 73 75 75 75 74 72 70 69 67 66 66 66 66 66
160 163 165 168 171 171 169 167 166 164 159 153 148 144 139 136 132 127 123 120 114 112 109 104 100 97 95 93 87 76 66 60 55 53 53 54 53 50 49 46 43 44 45 50 59 61 62 66 65 66 74 77 76 77 76 78 81 81 80 80 81 80 80 80 78 77 75 74 74 74 75 75 75 75 74 72 71 70 70 69 68 67 66 66 67 67
164 167 170 173 175 173 169 166 165 161 155 150 145 139 136 134 130 123 116 110 107 106 100 96 98 96 92 90 86 78 68 58 52 50 50 50 49 49 49 45 41 43 46 51 58 60 61 65 66 68 76 78 78 78 79 82 85 86 84 83 83 82 83 82 80 78 76 75 76 78 79 78 78 76 73 70 68 67 67 66 66 66 66 66 66 66
170 172 175 178 178 174 169 166 163 157 150 145 140 136 135 133 125 115 105 99 100 101 95 91 94 92 86 83 81 76 66 54 48 47 45 44 44 45 45 42 38 41 45 49 55 58 60 65 68 70 76 80 81 81 82 85 89 90 88 86 84 83 84 84 83 81 79 79 80 81 81 80 79 78 75 73 70 68 67 65 65 65 66 66 65 64
176 178 180 181 179 174 170 166 159 152 144 139 136 136 135 130 119 106 96 90 91 95 93 89 89 87 81 76 73 70 63 52 46 44 41 39 39 39 41 40 37 39 43 48 53 57 60 65 69 71 76 81 84 84 85 87 90 91 90 88 87 86 85 86 85 84 83 82 82 83 82 81 80 79 77 75 73 70 67 64 63 64 64 65 65 64
180 182 181 181 180 175 170 165 155 145 138 134 134 135 133 126 113 100 91 86 88 92 89 83 83 82 78 71 66 61 56 50 44 42 42 39 36 35 35 36 36 36 40 47 52 55 59 65 69 71 76 82 85 87 87 88 90 92 91 91 90 88 88 89 88 86 85 84 83 82 81 81 80 79 77 76 73 70 66 63 62 63 63 64 64 63
181 182 180 179 178 173 169 162 151 140 134 132 133 133 129 120 107 97 90 86 90 94 86 76 76 78 74 67 60 54 48 44 42 42 43 40 37 35 33 32 33 34 38 45 51 54 58 63 68 71 76 81 85 88 88 88 89 91 92 93 92 90 90 90 89 87 85 85 84 82 80 79 78 78 77 76 74 71 67 65 64 64 64 64 64 63
179 179 178 176 174 171 167 157 145 137 131 129 130 128 121 111 102 95 86 81 89 96 85 74 73 72 69 65 58 49 42 37 38 43 44 40 37 36 35 33 32 32 35 43 49 53 56 61 65 70 75 80 84 89 90 89 88 89 91 93 94 93 92 91 89 87 85 85 85 81 79 77 76 76 76 75 73 70 68 67 67 66 66 67 67 66
177 176 176 174 170 167 163 151 139 131 126 126 126 120 112 106 100 93 82 76 85 92 82 74 70 65 63 61 55 47 37 31 36 44 43 39 37 37 38 36 32 30 33 40 46 51 54 58 62 67 73 79 83 88 90 89 87 87 90 93 95 95 94 91 89 87 86 84 82 80 78 76 76 76 75 73 70 68 67 68 68 67 67 68 68 67
174 173 173 172 167 162 156 143 133 127 123 122 118 109 105 103 97 89 80 75 81 85 78 73 68 60 58 56 50 45 36 28 35 45 43 37 36 37 38 39 35 30 31 36 41 47 52 56 60 64 70 77 82 86 88 87 86 87 89 92 94 94 93 90 88 87 85 82 80 79 78 78 77 76 74 72 69 68 67 68 68 66 66 67 67 67
172 171 170 168 162 155 147 136 128 124 121 120 113 102 100 99 92 86 79 73 77 80 76 72 66 59 55 51 46 44 37 29 35 45 44 36 35 36 37 38 36 31 29 31 35 42 50 55 59 63 68 74 80 83 83 84 86 87 88 90 92 92 90 88 87 86 83 81 80 79 79 79 78 76 74 72 71 70 70 70 69 67 66 67 68 68
171 170 168 163 154 145 136 128 121 117 116 117 109 100 97 94 89 85 77 69 69 73 72 71 66 60 55 48 43 42 38 32 34 43 44 38 34 35 36 37 37 33 29 28 30 38 48 54 58 62 66 71 76 79 79 82 86 89 88 89 89 89 88 86 85 84 83 81 80 79 78 78 77 75 74 73 73 74 74 74 72 69 68 68 69 70
171 170 164 154 144 136 130 124 114 105 107 112 104 96 95 91 85 82 76 68 64 63 64 65 64 60 56 49 42 40 39 35 35 40 44 41 36 35 35 36 37 34 30 27 28 36 47 54 58 61 64 67 72 76 78 82 87 90 90 88 87 87 86 84 84 85 84 83 81 79 77 77 75 74 75 74 75 77 78 77 75 73 71 70 70 70
171 167 158 145 137 131 126 119 108 95 97 104 98 89 90 90 83 76 71 66 63 60 57 57 59 59 56 49 43 40 39 39 38 39 43 43 40 37 36 36 37 35 31 28 29 37 47 53 57 60 63 65 70 74 76 79 85 89 90 89 88 88 88 87 87 87 87 87 86 83 81 79 78 77 76 76 77 78 79 79 77 75 74 73 72 72
169 162 152 142 135 128 120 113 104 92 89 95 93 85 84 85 81 75 67 62 62 60 55 52 55 58 55 49 44 40 39 40 40 40 41 43 43 41 39 38 37 35 32 30 32 38 46 52 56 60 63 65 68 72 74 75 80 85 88 89 90 91 92 91 90 89 89 87 85 84 82 82 81 80 78 78 78 78 78 77 75 75 74 74 74 74
164 156 148 139 132 124 114 108 103 94 90 92 91 84 80 78 76 74 67 59 57 58 55 50 52 56 56 50 43 40 40 41 41 39 40 42 45 45 42 39 36 35 34 33 35 39 45 52 57 60 63 65 67 70 73 73 76 82 87 90 91 92 93 93 92 91 89 85 80 78 78 80 81 81 79 79 79 78 77 76 75 76 76 75 75 76
158 150 143 135 127 117 109 105 100 93 89 89 86 81 77 73 70 69 66 60 55 53 51 49 48 52 56 53 45 40 39 40 40 40 39 41 44 46 44 40 36 36 37 37 37 39 44 51 57 60 63 65 66 68 71 74 76 81 86 90 92 92 92 92 90 88 86 84 79 75 75 77 78 78 78 77 78 78 76 76 76 77 77 77 77 77
152 145 138 129 119 108 101 100 96 89 86 84 78 74 74 70 65 63 61 59 56 52 49 48 47 48 53 52 47 41 38 38 40 40 38 38 42 45 44 40 37 37 38 38 38 38 42 50 57 60 62 64 65 66 69 74 78 82 85 88 90 92 92 92 90 87 85 84 81 79 78 78 78 78 78 79 79 79 78 78 79 79 80 79 79 79
146 139 131 122 112 103 99 97 90 84 86 84 73 68 68 65 61 61 59 57 55 52 49 47 46 47 49 50 47 42 37 38 40 38 35 35 40 44 44 40 37 37 38 38 38 38 41 48 55 60 62 64 65 64 67 74 79 82 83 84 86 90 93 94 93 91 89 87 85 84 85 84 82 82 83 83 83 83 81 81 81 82 81 81 80 81
140 132 125 115 106 101 99 96 87 81 85 86 75 65 62 57 55 59 60 57 54 52 49 46 46 47 48 48 47 43 37 39 41 36 32 32 38 44 44 39 37 38 38 39 40 39 41 47 54 60 63 64 63 64 67 74 79 80 79 80 83 87 90 94 95 94 93 91 88 86 86 86 86 86 87 87 87 87 85 85 85 85 84 83 83 82
135 126 119 111 104 98 94 92 86 78 80 84 78 69 62 56 53 56 58 56 54 53 49 46 46 48 48 46 46 43 39 41 41 35 30 31 37 43 45 40 37 39 39 40 42 42 42 46 54 60 63 63 62 64 68 73 77 78 76 77 81 85 88 91 94 96 95 93 90 86 84 84 85 86 87 88 88 87 87 87 86 86 86 85 85 84
129 121 114 109 104 95 88 87 85 78 75 77 76 71 64 58 57 59 60 56 54 53 50 45 44 47 49 49 47 42 38 40 42 35 31 33 37 42 45 42 39 39 39 41 44 44 43 47 54 59 62 62 62 64 68 72 75 76 76 77 80 83 87 90 93 95 96 94 92 89 86 84 83 83 84 85 84 85 85 85 85 85 86 86 87 86
123 117 111 106 100 91 84 83 83 78 74 73 72 68 62 56 55 60 62 59 56 53 51 47 42 41 45 49 50 42 32 35 41 36 31 34 37 41 44 43 40 40 39 41 45 45 44 48 53 56 59 61 62 63 66 69 73 75 76 76 79 81 84 87 90 93 95 95 93 90 89 88 86 84 84 84 84 85 86 86 86 87 88 88 88 87
Wind_Direction
341 338 336 336 336 335 335 334 334 334 335 334 332 331 331 330 330 331 332 330 328 329 333 331 328 332 336 333 334 335 331 327 321 318 315 312 313 311 308 307 306 304 303 302 302 301 303 303 300 294 286 280 276 274 273 274 273 272 269 267 267 268 268 269 272 276 279 280 283 287 290 290 290 285 276 271 268 264 262 262 263 261 257 251 246 243
338 336 335 335 335 334 334 333 333 334 334 333 332 331 330 331 330 330 331 329 327 328 331 330 327 331 334 330 333 336 331 328 321 314 312 311 311 308 305 305 303 302 301 300 300 299 300 302 300 294 286 279 274 272 271 270 271 271 269 265 264 264 264 265 267 271 274 276 279 283 287 288 287 285 280 274 272 270 267 265 264 265 264 260 254 248
336 334 334 334 333 333 333 332 332 332 334 333 331 330 330 330 329 329 330 328 327 328 330 329 325 329 331 328 333 335 332 330 320 311 310 309 308 305 303 301 300 299 298 298 298 298 298 298 298 294 285 277 273 271 269 267 268 269 268 264 262 262 261 261 263 266 269 272 275 279 282 284 284 282 279 276 273 272 272 271 269 267 266 265 262 258
334 333 333 333 332 332 332 332 331 331 333 333 331 329 329 330 329 329 329 327 327 328 329 328 324 327 327 326 332 334 331 330 318 310 309 307 305 302 299 298 297 296 296 295 296 297 296 294 295 293 285 278 274 271 268 266 265 265 266 264 262 260 258 258 259 262 265 268 272 274 277 280 281 278 275 274 273 272 272 274 274 273 271 268 266 263
334 333 333 333 332 332 332 332 332 331 332 332 331 330 329 330 329 329 329 327 327 327 329 328 324 323 324 325 331 331 329 326 316 310 309 306 302 298 296 294 292 293 293 293 293 295 294 291 290 289 286 279 272 268 266 265 263 263 264 264 261 258 256 255 256 258 261 264 268 270 273 276 275 274 272 270 271 271 271 271 274 275 275 274 271 269
333 333 333 332 332 332 332 333 332 331 331 332 331 330 330 330 329 329 328 327 327 327 329 329 323 319 320 324 329 329 326 321 314 310 308 305 300 295 292 290 289 290 289 289 291 292 291 288 285 285 284 279 269 264 263 262 261 261 262 262 259 256 254 253 253 255 257 260 263 266 268 270 271 270 268 268 269 269 269 269 271 273 274 275 275 273
332 333 332 331 331 332 332 333 332 331 331 331 330 329 329 329 328 328 327 327 327 326 329 331 323 317 317 322 327 326 321 315 312 308 306 304 298 291 290 288 286 286 285 285 287 289 289 285 282 281 280 277 269 261 260 260 260 260 260 259 257 254 253 251 250 251 253 255 258 262 264 266 268 267 264 264 265 267 268 269 270 270 272 273 274 274
332 332 332 331 331 332 332 333 332 331 331 331 330 329 329 328 328 328 326 326 326 325 328 330 322 315 314 319 326 324 316 311 308 307 305 302 296 291 290 287 283 281 281 282 283 285 286 283 278 276 276 275 270 262 258 258 259 259 258 257 255 253 252 250 248 247 249 251 253 257 261 264 264 262 261 261 262 264 266 267 268 269 270 270 271 271
331 331 330 330 331 331 332 332 331 331 330 330 329 328 328 327 327 326 325 325 325 324 327 328 321 314 311 316 323 320 313 309 306 305 303 300 296 293 290 285 279 277 277 278 280 281 282 281 276 272 271 272 270 264 257 255 256 255 254 252 251 252 250 247 246 244 245 248 250 253 258 261 260 259 259 259 259 260 261 263 265 266 267 267 267 267
331 330 329 329 330 331 331 331 331 330 330 329 329 327 326 326 326 325 324 325 324 323 326 326 320 314 310 314 321 317 311 308 305 304 302 298 295 291 287 281 275 273 273 274 275 277 278 278 274 269 268 269 268 263 255 252 252 251 249 248 247 248 247 244 243 243 243 245 248 250 253 256 258 258 257 257 257 258 259 260 262 263 264 264 264 264
330 329 329 330 330 331 331 330 330 330 330 329 328 326 325 325 326 324 324 324 323 322 323 322 319 313 309 312 316 313 309 307 305 305 302 296 291 287 282 276 270 267 267 268 270 272 274 274 272 267 265 266 266 261 254 251 249 246 244 243 242 243 243 242 241 241 241 243 245 247 249 251 255 257 257 255 254 255 257 258 259 261 262 262 261 260
329 329 329 330 330 331 330 329 330 330 329 328 327 325 325 325 325 323 323 322 320 319 319 318 316 311 308 311 312 309 308 307 306 305 301 295 290 285 279 272 267 264 264 265 266 268 270 271 270 266 263 263 264 260 253 249 246 243 240 239 238 239 239 239 239 238 239 241 244 246 248 249 250 253 255 253 252 254 256 258 259 260 261 260 259 257
328 329 330 330 330 330 329 328 329 329 328 327 325 324 324 325 324 323 322 321 318 318 318 318 316 312 312 314 312 310 310 309 307 304 300 295 291 286 279 271 265 263 262 262 263 265 267 269 268 265 263 262 261 257 251 247 244 241 237 234 234 235 235 236 236 236 237 240 242 244 247 248 248 250 252 253 252 253 255 258 259 260 260 260 259 258
325 328 331 330 329 329 328 328 329 328 327 326 324 324 325 325 324 323 323 322 320 320 319 320 318 316 316 316 313 311 311 308 306 303 299 296 292 285 280 273 265 258 257 259 262 264 266 267 266 266 265 262 258 254 249 246 243 239 234 231 231 232 233 234 234 235 236 238 241 243 245 247 248 249 250 251 253 254 255 257 259 260 262 263 263 262
325 328 330 329 329 328 327 328 328 327 326 324 323 324 324 325 323 323 323 322 321 320 320 320 318 317 316 314 312 311 309 307 306 304 301 298 293 286 279 274 265 257 256 259 262 265 266 267 268 269 265 258 254 251 248 244 241 236 232 230 230 231 232 233 232 233 235 237 239 241 244 246 248 249 249 251 253 254 256 257 259 262 264 267 268 268
325 329 331 329 328 327 327 328 327 325 324 322 322 323 324 324 323 323 322 321 321 320 319 319 318 316 314 311 311 311 309 307 305 304 302 300 297 293 286 278 270 264 261 261 262 263 264 266 269 269 262 253 251 250 246 242 237 232 230 230 230 231 231 231 231 232 234 237 238 240 243 245 247 249 250 251 251 251 254 255 258 262 265 268 270 272
324 328 330 329 327 326 327 327 325 324 322 321 322 323 323 323 323 322 321 320 320 319 318 318 317 315 312 311 311 311 309 307 305 303 301 299 299 298 295 289 281 273 267 263 262 260 261 263 265 266 261 251 246 245 241 237 231 228 228 228 229 231 231 230 231 232 234 236 238 239 241 245 247 248 249 250 249 249 251 254 257 260 264 267 270 272
322 325 328 328 326 326 326 325 324 322 320 320 321 323 323 323 322 322 320 320 320 318 317 317 316 313 312 312 311 310 309 306 302 300 298 297 298 298 299 298 291 280 269 262 261 259 258 261 262 264 261 248 240 238 236 231 225 223 224 225 227 230 230 229 229 231 232 232 235 238 240 244 246 247 248 249 250 249 250 253 256 258 261 263 267 271
320 322 325 327 325 325 325 324 322 320 319 320 321 323 323 322 322 321 319 319 319 317 316 315 314 312 312 312 311 309 307 302 299 298 297 297 297 297 299 299 295 285 270 259 258 258 257 260 262 265 261 248 240 237 234 226 220 220 223 223 225 228 229 229 228 230 232 231 232 236 240 243 245 247 248 249 250 250 250 251 253 255 257 260 264 267
319 320 323 325 324 323 323 322 320 319 319 320 322 324 323 322 321 320 319 319 318 316 315 314 312 311 311 312 311 307 303 300 299 298 298 297 296 296 296 297 294 287 274 258 255 256 255 257 261 263 260 250 241 237 232 223 215 217 221 222 223 225 228 230 229 230 232 231 231 234 239 242 244 246 247 248 250 249 248 250 252 255 256 258 262 265
319 319 320 322 321 321 322 321 320 319 320 321 323 324 323 322 321 319 319 319 317 315 314 314 312 310 310 312 310 304 301 301 300 298 296 296 296 294 294 293 290 285 276 261 254 256 255 255 257 260 257 248 241 236 231 223 214 213 217 219 221 223 226 230 229 228 230 230 230 232 236 239 242 244 245 246 248 248 248 251 254 256 256 258 261 264
318 318 318 319 320 320 321 321 320 320 320 321 323 324 323 321 321 320 319 318 316 314 314 314 310 306 309 311 307 303 302 302 299 296 295 295 294 293 291 289 285 282 275 262 257 258 257 255 255 256 253 245 238 234 229 224 218 213 214 216 218 221 224 227 227 226 228 230 231 231 233 236 239 242 244 246 247 248 250 253 255 255 256 258 260 261
317 317 317 318 319 320 321 321 321 320 320 321 323 323 322 321 321 320 318 316 314 313 314 312 305 304 311 311 305 303 303 300 297 295 295 295 294 293 289 285 282 280 275 263 258 258 256 255 253 249 245 239 234 230 225 222 220 215 213 213 216 219 222 224 224 225 227 230 232 232 232 234 237 240 243 245 246 248 251 253 254 254 255 257 258 259
317 317 317 318 318 319 321 322 321 320 320 320 322 322 321 321 321 319 317 315 314 314 313 308 302 306 312 310 306 305 301 299 299 297 297 297 294 290 286 281 279 277 271 260 254 254 253 252 249 242 235 230 228 226 220 218 219 215 212 212 213 216 219 221 222 224 226 228 231 233 233 234 236 239 241 243 245 248 251 252 253 254 255 256 257 258
316 317 318 318 317 319 322 323 321 320 320 320 321 321 321 321 320 317 315 314 314 314 312 307 305 308 310 308 307 304 300 300 300 298 298 296 290 286 281 277 274 270 264 253 249 250 251 251 246 235 228 225 224 222 216 215 218 215 210 209 210 213 216 219 222 224 226 228 229 230 232 233 236 238 240 241 244 247 249 250 251 253 254 256 256 257
316 317 318 317 317 320 323 323 322 320 320 321 322 322 322 322 320 317 316 315 314 313 311 309 309 310 309 308 307 303 302 302 300 297 297 294 290 286 279 274 270 265 258 249 247 249 251 252 246 233 226 224 222 219 215 214 216 215 210 207 208 211 213 216 219 222 226 228 230 231 231 233 235 237 238 239 241 244 245 246 248 250 253 255 255 256
316 317 318 317 318 321 323 322 321 320 321 322 322 323 323 321 318 317 316 316 315 313 311 311 310 308 309 309 306 303 303 304 301 298 296 293 290 286 279 274 268 262 257 250 248 249 251 251 247 236 229 226 223 220 216 213 215 216 213 208 207 208 210 213 216 220 224 228 230 232 233 234 234 235 237 237 238 240 242 243 245 248 251 253 254 254
316 317 317 317 318 320 322 321 320 320 320 321 322 322 322 319 317 317 317 316 316 313 311 310 308 307 309 308 305 304 305 304 301 299 297 294 291 284 276 270 264 259 256 251 249 249 249 248 244 235 230 228 225 221 217 213 214 217 215 211 208 207 207 210 214 217 221 224 226 229 231 233 234 235 235 236 237 239 241 242 244 246 248 250 252 252
315 316 317 316 318 320 321 320 319 319 319 321 322 322 320 317 317 317 316 316 315 312 309 309 308 308 309 307 304 306 308 306 302 300 298 295 290 283 274 266 260 256 253 249 247 247 245 244 240 231 227 227 226 221 216 212 213 216 215 212 211 209 207 208 211 214 217 219 222 225 228 230 233 234 236 238 240 241 243 244 245 246 248 249 251 252
314 315 316 316 318 319 320 319 319 319 320 321 322 321 318 317 317 317 316 315 313 309 308 308 308 308 307 305 304 307 309 307 304 302 299 294 290 282 273 267 263 257 250 245 244 244 242 242 238 229 224 225 224 220 214 210 212 216 215 213 212 212 210 209 211 213 215 217 220 223 225 227 230 232 234 237 239 241 243 245 246 247 248 250 251 253
314 314 316 317 317 319 319 319 318 319 320 321 322 320 317 316 317 316 315 314 310 308 308 308 307 306 306 304 304 306 307 307 304 301 297 294 289 282 275 271 266 260 253 246 245 244 241 241 237 227 222 224 224 219 213 209 212 214 215 214 213 212 212 212 212 213 214 216 219 222 224 226 228 231 232 234 236 239 241 243 245 247 248 249 250 251
314 315 316 317 317 319 319 319 319 320 321 322 321 319 317 316 316 315 314 312 310 308 307 306 305 304 304 303 303 304 305 306 303 298 293 290 287 282 278 274 264 259 256 250 247 246 241 238 235 227 221 221 222 220 214 210 212 214 214 215 214 214 214 214 215 215 215 216 218 221 223 226 228 230 232 234 236 238 240 241 243 245 246 247 248 249
315 316 317 317 318 319 319 318 319 320 322 323 321 318 317 315 314 314 313 313 311 307 305 305 305 304 304 303 303 303 304 303 299 294 287 282 279 278 277 273 263 257 256 252 248 245 240 236 233 227 221 220 221 220 217 213 213 214 214 215 215 215 216 217 217 217 216 216 218 220 222 225 228 230 232 234 236 237 239 241 242 243 244 245 247 249
315 316 317 317 318 318 318 318 320 321 323 323 321 318 316 315 315 314 314 315 312 305 303 305 305 304 304 303 303 302 301 299 298 292 282 275 272 269 269 268 263 257 255 254 251 246 240 235 233 228 222 220 221 221 220 217 214 213 214 215 216 216 217 218 220 220 218 218 218 220 222 225 227 230 232 234 235 236 238 239 240 241 244 246 249 252
315 316 316 317 317 318 318 318 320 322 324 323 320 318 315 314 315 314 314 318 312 304 304 308 306 304 304 304 303 301 298 297 295 288 280 276 272 267 263 260 258 255 253 253 253 251 244 237 233 228 224 222 221 221 222 220 217 215 214 216 217 218 218 220 222 223 221 219 219 220 223 225 228 230 232 233 235 235 236 237 238 242 245 248 251 253
315 315 316 316 316 317 317 319 321 323 324 322 319 316 314 313 313 311 314 319 311 304 306 309 306 304 303 302 301 300 296 293 289 282 280 279 276 272 267 261 254 250 250 251 252 253 248 241 235 229 225 223 222 222 222 222 221 218 216 216 218 220 221 223 225 225 224 222 221 222 224 226 229 230 232 233 233 234 235 237 239 243 246 249 251 253
314 315 315 315 316 317 317 320 322 322 323 321 317 314 313 312 311 310 315 317 308 304 307 308 305 304 301 299 299 297 294 290 282 278 279 279 277 275 274 269 261 251 248 249 250 252 250 245 239 232 227 225 223 223 224 224 223 220 217 216 218 220 223 225 226 227 227 226 226 226 227 228 229 230 231 232 233 234 236 238 241 244 248 251 253 254
314 314 314 315 316 316 317 320 321 322 322 318 313 313 313 311 310 311 315 315 307 305 308 306 304 304 300 297 296 294 293 288 277 276 279 280 279 277 276 275 271 259 249 248 249 250 250 247 242 235 229 227 224 224 226 226 224 222 219 217 218 220 223 225 226 228 229 230 230 230 230 230 230 231 232 233 233 235 237 239 242 245 248 251 253 253
313 313 314 315 316 316 318 320 321 322 321 315 312 314 313 310 310 312 314 313 309 307 307 304 304 303 299 296 294 291 291 286 274 274 278 280 278 278 277 277 276 268 256 250 248 248 249 247 244 239 233 229 226 226 227 227 225 223 221 219 218 219 222 224 227 229 230 231 232 232 232 232 232 232 234 234 235 236 237 239 242 244 247 250 252 252
313 313 314 314 315 317 318 319 321 322 318 313 314 316 312 309 311 311 312 312 309 306 305 303 303 302 299 296 293 289 288 282 272 271 276 277 275 275 276 276 277 274 264 254 249 247 247 246 245 243 238 232 228 227 226 225 224 224 222 221 219 219 221 224 227 230 232 232 232 231 230 231 232 233 234 235 236 237 238 240 241 242 245 248 251 252
313 313 314 314 316 317 318 319 321 319 315 313 315 315 310 309 310 311 310 310 307 302 301 300 300 299 298 296 293 288 283 279 270 268 272 274 272 271 271 272 273 273 265 254 246 245 245 245 246 246 243 237 231 227 225 223 223 223 222 222 220 218 219 223 226 228 231 233 234 234 233 233 233 233 234 235 236 238 239 240 240 242 244 246 249 251
313 313 314 314 317 318 318 319 319 316 314 314 314 312 310 309 310 309 309 309 305 300 299 299 298 296 295 296 293 286 279 275 270 266 268 271 270 267 265 264 266 268 261 249 242 242 243 244 245 245 244 241 234 230 227 224 223 222 222 221 219 217 218 221 224 227 230 232 235 236 237 237 237 236 236 236 237 238 238 238 239 241 243 244 246 249
313 313 313 315 317 318 319 319 317 315 315 314 311 310 311 311 310 310 309 308 305 302 301 300 297 294 293 293 290 284 277 272 268 265 265 267 267 265 262 260 261 262 257 245 238 239 240 242 243 244 244 242 237 233 231 228 225 223 222 221 220 219 219 221 223 227 230 233 235 237 237 238 239 238 238 238 239 239 238 239 241 243 244 245 247 249
313 312 313 316 318 319 320 319 317 317 318 315 310 310 312 311 310 310 309 307 305 303 303 302 297 294 292 290 287 282 276 271 267 264 262 261 263 264 263 260 258 257 254 244 235 235 238 239 241 242 242 242 239 235 233 230 227 224 222 221 221 221 221 222 224 227 230 232 234 236 237 238 239 240 241 242 243 243 242 243 245 246 247 248 249 251
311 312 314 316 317 319 320 318 316 317 317 313 310 311 311 310 311 310 308 307 304 303 303 301 296 292 290 289 288 282 277 273 270 266 261 257 258 262 262 260 255 252 250 244 236 232 234 236 238 239 240 241 240 237 234 231 228 225 223 221 221 222 222 223 224 225 227 229 231 234 235 237 238 241 242 243 244 245 245 246 247 247 248 249 251 253
311 312 314 316 317 318 318 316 315 317 315 310 309 311 311 311 311 309 307 306 305 303 301 299 295 290 288 288 288 284 279 275 271 267 263 257 254 257 259 256 251 248 247 245 238 231 230 233 236 238 239 240 240 238 235 231 229 227 225 223 221 222 223 224 225 225 225 227 229 231 232 234 235 237 239 240 242 244 245 246 247 248 249 251 253 255
311 313 314 316 317 318 317 316 316 317 315 311 310 312 312 312 312 311 308 305 303 302 301 298 294 290 287 287 287 284 280 275 270 268 267 259 251 253 255 252 246 244 244 243 239 230 226 230 235 237 238 239 239 238 235 232 230 229 228 225 222 222 223 224 225 226 227 227 229 230 232 233 234 236 238 240 242 244 246 247 249 251 252 254 256 258
311 313 315 316 317 318 318 317 317 317 316 312 311 312 312 311 312 312 310 306 303 301 299 298 294 290 287 286 285 284 279 275 272 271 269 261 251 251 254 249 240 238 239 238 235 229 224 227 232 235 236 237 238 237 234 232 232 232 231 228 224 223 224 224 226 228 229 230 231 233 235 236 237 238 241 242 244 246 248 249 251 253 255 256 257 258
312 314 315 316 316 317 318 317 314 315 316 315 314 315 315 313 312 312 309 306 304 301 299 298 294 289 286 284 282 281 279 275 274 272 268 258 249 249 253 249 238 235 235 233 230 227 224 225 230 233 235 236 236 236 234 233 234 235 234 231 227 225 225 225 226 228 229 231 232 234 236 237 238 239 241 244 246 248 249 250 252 254 255 256 256 257
313 315 315 315 315 316 318 315 313 314 316 315 316 317 317 317 316 313 309 305 303 301 299 297 293 289 288 285 281 279 277 276 275 272 263 255 247 246 250 248 238 233 232 229 228 227 222 222 227 231 233 235 235 235 234 234 234 236 235 233 231 229 227 226 227 228 229 231 232 234 235 236 238 239 241 243 245 247 248 250 252 253 254 255 256 257
314 314 314 314 314 316 317 315 313 313 314 315 316 316 317 318 317 313 308 305 303 300 297 294 289 284 285 286 284 283 278 273 274 272 262 254 248 245 248 247 240 234 231 227 227 228 223 221 225 228 230 233 234 234 235 235 235 236 236 235 234 232 230 229 229 229 229 230 232 234 235 236 237 238 240 241 243 245 247 249 250 252 253 255 256 257
Height
10735 10728 10720 10716 10713 10706 10698 10691 10687 10684 10680 10673 10667 10664 10664 10660 10660 10661 10655 10644 10634 10638 10650 10640 10629 10640 10641 10634 10638 10631 10620 10613 10601 10592 10585 10576 10572 10568 10563 10557 10552 10548 10545 10542 10542 10543 10545 10550 10552 10551 10551 10551 10550 10550 10552 10553 10550 10549 10551 10552 10551 10549 10548 10546 10544 10543 10542 10542 10543 10543 10544 10544 10544 10544 10544 10543 10543 10543 10545 10546 10547 10549 10551 10553 10555 10556
10732 10725 10719 10714 10709 10703 10695 10685 10680 10678 10674 10666 10657 10652 10653 10650 10647 10650 10647 10637 10629 10628 10636 10631 10620 10631 10633 10621 10627 10625 10614 10608 10595 10585 10578 10568 10565 10561 10554 10548 10542 10537 10534 10531 10530 10529 10531 10535 10540 10542 10541 10541 10541 10539 10540 10543 10541 10541 10544 10545 10544 10544 10543 10541 10540 10539 10537 10537 10538 10539 10539 10539 10539 10539 10539 10539 10539 10538 10539 10540 10542 10543 10545 10547 10549 10551
10727 10720 10716 10711 10704 10698 10691 10680 10672 10671 10670 10661 10649 10641 10641 10640 10633 10637 10637 10628 10623 10620 10622 10618 10609 10620 10623 10612 10617 10616 10609 10606 10590 10578 10572 10561 10558 10554 10546 10539 10533 10528 10524 10520 10518 10518 10518 10520 10526 10531 10531 10530 10531 10530 10529 10532 10533 10533 10534 10535 10537 10538 10537 10535 10534 10534 10533 10532 10533 10534 10534 10534 10535 10535 10535 10535 10535 10534 10534 10534 10536 10538 10540 10541 10543 10545
10720 10714 10710 10706 10698 10691 10686 10675 10665 10663 10665 10657 10642 10630 10630 10629 10619 10619 10620 10615 10617 10616 10612 10604 10595 10606 10609 10604 10611 10607 10602 10602 10586 10573 10567 10557 10552 10547 10539 10531 10523 10520 10515 10509 10508 10508 10508 10507 10511 10518 10520 10520 10521 10521 10520 10521 10524 10525 10525 10525 10528 10530 10530 10530 10529 10528 10528 10528 10528 10529 10529 10530 10530 10530 10530 10530 10531 10531 10531 10530 10531 10532 10533 10535 10537 10539
10711 10705 10702 10698 10690 10683 10678 10670 10658 10652 10657 10654 10639 10622 10619 10619 10610 10605 10602 10597 10602 10610 10611 10596 10579 10586 10593 10595 10603 10599 10595 10595 10579 10567 10562 10553 10547 10539 10532 10524 10515 10512 10506 10499 10497 10498 10499 10496 10496 10503 10508 10511 10512 10511 10511 10511 10514 10516 10517 10516 10519 10523 10524 10524 10523 10522 10523 10523 10523 10523 10525 10525 10525 10526 10526 10526 10526 10527 10528 10528 10528 10528 10528 10529 10531 10533
10702 10698 10693 10689 10683 10676 10669 10662 10650 10641 10644 10645 10635 10619 10611 10609 10603 10598 10591 10583 10583 10592 10607 10598 10567 10559 10574 10587 10593 10586 10585 10586 10571 10559 10554 10548 10541 10531 10524 10516 10508 10503 10498 10491 10488 10487 10488 10486 10484 10488 10495 10499 10502 10502 10500 10501 10503 10506 10508 10509 10511 10515 10516 10517 10516 10517 10518 10518 10518 10518 10520 10520 10520 10521 10521 10521 10522 10522 10523 10524 10525 10525 10525 10525 10526 10527
10694 10691 10685 10679 10676 10670 10662 10655 10644 10632 10629 10631 10625 10614 10606 10600 10595 10590 10582 10576 10570 10571 10591 10596 10560 10537 10550 10573 10582 10572 10571 10575 10564 10552 10546 10540 10532 10522 10515 10508 10500 10495 10489 10484 10480 10477 10476 10475 10474 10475 10481 10487 10491 10492 10490 10492 10494 10497 10500 10502 10504 10506 10508 10509 10510 10511 10512 10513 10513 10512 10514 10515 10515 10516 10515 10516 10517 10517 10518 10520 10521 10522 10522 10522 10523 10523
10685 10683 10678 10671 10668 10663 10655 10647 10637 10626 10619 10616 10612 10604 10598 10592 10587 10581 10573 10569 10562 10557 10577 10588 10554 10523 10531 10557 10567 10557 10553 10558 10554 10544 10536 10531 10522 10513 10508 10500 10491 10485 10480 10475 10471 10468 10464 10462 10464 10464 10466 10473 10479 10481 10482 10484 10486 10489 10492 10494 10496 10498 10500 10502 10503 10505 10506 10506 10508 10507 10508 10510 10510 10510 10510 10512 10513 10513 10514 10514 10515 10517 10518 10519 10519 10520
10680 10674 10669 10663 10659 10654 10648 10640 10628 10618 10609 10604 10599 10591 10586 10582 10578 10570 10562 10560 10551 10545 10563 10575 10546 10513 10516 10541 10551 10540 10534 10535 10537 10535 10528 10521 10512 10503 10497 10489 10481 10475 10470 10466 10461 10458 10454 10450 10451 10452 10454 10460 10467 10470 10472 10474 10476 10480 10484 10486 10488 10491 10493 10495 10496 10498 10499 10500 10502 10503 10504 10505 10505 10505 10506 10507 10508 10508 10509 10509 10510 10512 10514 10515 10516 10516
10678 10668 10659 10654 10650 10644 10639 10633 10622 10610 10600 10591 10584 10578 10573 10570 10565 10556 10550 10546 10536 10533 10546 10552 10535 10505 10500 10524 10532 10521 10518 10513 10513 10522 10519 10510 10502 10493 10484 10476 10470 10465 10459 10454 10449 10445 10442 10438 10438 10441 10443 10447 10454 10459 10461 10463 10467 10471 10475 10479 10482 10484 10486 10487 10489 10491 10493 10494 10495 10497 10498 10499 10499 10500 10501 10502 10503 10503 10503 10504 10505 10506 10508 10510 10511 10511
10673 10662 10652 10644 10638 10632 10626 10622 10615 10603 10592 10581 10570 10562 10558 10558 10554 10543 10540 10536 10520 10521 10534 10534 10524 10500 10489 10510 10515 10503 10504 10497 10491 10503 10505 10496 10489 10479 10470 10463 10458 10453 10447 10443 10438 10432 10428 10425 10425 10429 10432 10436 10441 10447 10449 10452 10457 10462 10466 10472 10475 10476 10478 10479 10482 10484 10486 10487 10489 10491 10492 10493 10494 10495 10496 10497 10497 10497 10497 10498 10499 10501 10503 10504 10505 10506
10667 10657 10647 10637 10628 10620 10613 10609 10606 10595 10583 10571 10559 10548 10539 10540 10538 10526 10527 10524 10507 10506 10518 10518 10512 10496 10485 10498 10499 10488 10489 10482 10473 10479 10482 10478 10474 10465 10456 10450 10444 10440 10435 10432 10427 10419 10414 10411 10411 10416 10421 10425 10430 10436 10439 10441 10446 10451 10456 10462 10466 10468 10470 10472 10474 10476 10479 10481 10483 10484 10485 10487 10489 10490 10491 10491 10491 10491 10492 10492 10494 10495 10497 10498 10499 10501
10664 10656 10642 10631 10621 10611 10600 10595 10594 10588 10578 10565 10552 10540 10527 10520 10511 10504 10506 10502 10489 10487 10496 10497 10489 10477 10474 10477 10471 10466 10468 10460 10451 10454 10455 10455 10456 10450 10442 10437 10433 10428 10423 10419 10414 10406 10401 10399 10397 10403 10410 10415 10420 10426 10429 10431 10435 10441 10447 10452 10457 10460 10461 10463 10466 10468 10472 10474 10476 10477 10478 10480 10483 10485 10486 10486 10485 10486 10486 10487 10488 10490 10491 10492 10493 10495
10656 10659 10645 10626 10616 10606 10592 10582 10574 10570 10565 10556 10545 10533 10522 10509 10487 10478 10482 10477 10467 10465 10472 10479 10468 10454 10457 10457 10446 10443 10444 10435 10426 10425 10427 10431 10436 10433 10427 10424 10420 10415 10408 10403 10400 10395 10392 10389 10385 10391 10401 10406 10409 10414 10418 10421 10426 10432 10438 10442 10447 10450 10452 10455 10458 10461 10464 10467 10468 10470 10472 10473 10476 10478 10479 10480 10480 10480 10481 10482 10482 10484 10484 10486 10487 10488
10637 10650 10644 10624 10611 10600 10589 10580 10565 10553 10546 10539 10535 10525 10516 10505 10479 10460 10459 10452 10443 10441 10447 10459 10454 10441 10440 10440 10432 10425 10423 10416 10402 10397 10398 10403 10411 10414 10411 10409 10406 10401 10395 10391 10391 10388 10384 10379 10376 10383 10394 10396 10398 10402 10407 10411 10416 10423 10429 10433 10437 10440 10443 10447 10450 10453 10457 10459 10461 10463 10465 10467 10469 10471 10472 10474 10475 10475 10476 10476 10476 10477 10478 10479 10479 10481
10617 10635 10635 10617 10602 10587 10578 10575 10562 10546 10534 10525 10523 10517 10509 10500 10477 10454 10446 10440 10427 10416 10420 10433 10438 10432 10424 10420 10417 10408 10405 10400 10387 10379 10376 10373 10378 10386 10391 10392 10390 10386 10382 10381 10382 10380 10375 10370 10368 10375 10383 10385 10388 10391 10397 10402 10406 10413 10419 10423 10427 10430 10434 10438 10441 10445 10449 10451 10454 10457 10459 10460 10462 10464 10466 10467 10468 10469 10469 10470 10471 10472 10472 10473 10473 10474
10589 10613 10625 10612 10596 10583 10572 10566 10558 10541 10521 10512 10510 10505 10498 10489 10472 10447 10428 10426 10420 10400 10398 10412 10418 10414 10405 10401 10399 10391 10388 10383 10370 10364 10360 10351 10349 10358 10368 10374 10373 10369 10366 10367 10369 10366 10363 10359 10359 10365 10370 10376 10379 10380 10384 10391 10396 10403 10409 10413 10417 10421 10424 10430 10434 10437 10441 10444 10447 10450 10452 10453 10456 10457 10459 10460 10460 10461 10463 10464 10466 10467 10467 10467 10468 10468
10559 10577 10605 10604 10583 10575 10569 10556 10551 10540 10516 10501 10497 10490 10480 10469 10463 10446 10415 10405 10405 10386 10380 10396 10401 10390 10381 10381 10379 10371 10368 10362 10351 10344 10341 10338 10334 10336 10347 10356 10357 10354 10351 10353 10353 10350 10349 10346 10346 10354 10360 10365 10367 10366 10371 10379 10384 10391 10397 10403 10407 10412 10416 10421 10425 10427 10431 10436 10439 10442 10445 10446 10448 10450 10451 10452 10454 10455 10457 10458 10460 10461 10462 10462 10463 10462
10539 10541 10571 10590 10571 10558 10560 10545 10532 10529 10513 10498 10491 10483 10468 10445 10436 10431 10409 10394 10387 10367 10362 10378 10386 10377 10367 10365 10359 10351 10348 10340 10332 10327 10323 10325 10324 10321 10328 10335 10338 10339 10338 10340 10339 10336 10336 10333 10334 10343 10350 10353 10356 10356 10360 10366 10372 10380 10387 10393 10398 10403 10407 10409 10414 10418 10423 10428 10432 10435 10437 10439 10440 10442 10444 10446 10447 10449 10451 10451 10453 10454 10455 10456 10458 10458
10530 10518 10531 10563 10562 10547 10550 10537 10513 10504 10498 10490 10485 10482 10469 10445 10426 10412 10399 10391 10374 10352 10345 10352 10361 10363 10357 10353 10342 10329 10326 10322 10317 10315 10310 10309 10310 10310 10313 10317 10320 10321 10324 10327 10324 10322 10324 10323 10325 10332 10339 10344 10346 10348 10350 10354 10361 10369 10376 10382 10387 10392 10396 10399 10406 10412 10416 10421 10424 10427 10429 10431 10433 10435 10436 10438 10440 10443 10444 10444 10446 10447 10449 10450 10451 10452
10519 10511 10507 10530 10545 10540 10541 10531 10502 10482 10473 10467 10467 10465 10453 10437 10420 10398 10385 10383 10366 10340 10328 10324 10329 10339 10345 10346 10331 10310 10307 10308 10303 10299 10298 10297 10296 10296 10300 10302 10304 10305 10308 10312 10310 10307 10310 10311 10314 10321 10327 10333 10337 10340 10341 10342 10347 10354 10362 10371 10377 10381 10387 10392 10398 10403 10408 10411 10414 10418 10421 10423 10425 10426 10428 10431 10433 10435 10436 10437 10439 10440 10442 10444 10445 10445
10507 10505 10498 10505 10521 10526 10528 10522 10498 10472 10459 10452 10449 10447 10432 10416 10403 10379 10362 10366 10357 10335 10322 10306 10298 10309 10325 10332 10321 10301 10294 10294 10288 10282 10282 10286 10285 10283 10286 10287 10289 10291 10293 10297 10297 10294 10295 10297 10302 10309 10316 10322 10326 10330 10332 10332 10335 10341 10349 10359 10366 10372 10378 10383 10389 10394 10398 10401 10404 10408 10411 10413 10416 10419 10421 10424 10426 10428 10429 10430 10432 10432 10435 10437 10438 10438
10497 10489 10481 10479 10489 10496 10501 10500 10482 10456 10443 10439 10437 10432 10415 10399 10388 10364 10340 10338 10335 10328 10321 10296 10276 10288 10307 10311 10304 10293 10281 10274 10271 10266 10267 10274 10274 10271 10272 10273 10275 10278 10281 10284 10283 10280 10279 10281 10289 10297 10303 10308 10312 10316 10320 10322 10326 10330 10337 10345 10352 10361 10368 10373 10378 10383 10386 10390 10394 10398 10400 10404 10408 10411 10414 10417 10418 10420 10421 10422 10423 10424 10427 10429 10430 10432
10490 10480 10465 10456 10462 10474 10484 10486 10471 10447 10432 10429 10430 10425 10408 10390 10378 10357 10333 10320 10312 10313 10308 10278 10258 10275 10290 10288 10285 10280 10267 10258 10254 10250 10253 10260 10261 10258 10257 10259 10263 10265 10269 10271 10267 10265 10264 10266 10275 10284 10289 10294 10298 10302 10307 10311 10315 10319 10324 10330 10339 10349 10355 10360 10366 10370 10375 10380 10384 10387 10391 10396 10401 10404 10407 10409 10411 10412 10413 10414 10415 10417 10419 10421 10423 10424
10475 10472 10456 10434 10428 10441 10455 10459 10449 10433 10423 10418 10415 10411 10398 10381 10363 10343 10326 10313 10301 10299 10291 10262 10248 10265 10272 10267 10266 10260 10251 10249 10245 10238 10239 10241 10243 10245 10244 10244 10248 10249 10253 10255 10251 10250 10251 10254 10264 10273 10275 10280 10286 10291 10295 10299 10303 10308 10312 10318 10326 10333 10339 10346 10353 10359 10365 10370 10373 10377 10382 10387 10392 10396 10399 10401 10402 10403 10404 10405 10407 10408 10410 10413 10415 10416
10453 10457 10448 10420 10403 10408 10415 10414 10404 10392 10386 10385 10381 10375 10366 10352 10334 10314 10303 10295 10282 10275 10269 10252 10239 10245 10252 10252 10250 10241 10233 10236 10235 10229 10226 10222 10223 10228 10230 10231 10235 10235 10238 10240 10238 10239 10242 10245 10254 10262 10262 10267 10275 10278 10283 10288 10292 10297 10302 10307 10312 10318 10324 10332 10341 10348 10354 10359 10363 10368 10373 10378 10383 10387 10390 10391 10392 10394 10395 10396 10398 10400 10402 10404 10406 10408
10434 10442 10439 10413 10395 10399 10399 10389 10378 10364 10356 10355 10352 10347 10340 10325 10308 10293 10281 10272 10258 10243 10241 10240 10226 10218 10229 10234 10230 10225 10221 10220 10219 10216 10213 10210 10210 10214 10217 10220 10223 10223 10225 10228 10228 10231 10235 10237 10244 10251 10253 10257 10263 10266 10270 10277 10282 10288 10294 10298 10301 10306 10312 10320 10328 10336 10342 10349 10354 10359 10364 10369 10374 10377 10379 10380 10382 10383 10385 10387 10389 10392 10394 10395 10398 10401
10413 10421 10426 10404 10392 10401 10399 10382 10368 10357 10350 10348 10342 10335 10325 10306 10291 10284 10272 10258 10244 10223 10216 10223 10215 10204 10212 10215 10207 10207 10210 10208 10206 10203 10201 10201 10201 10203 10205 10207 10209 10211 10215 10217 10217 10221 10226 10228 10233 10241 10245 10248 10254 10259 10263 10269 10275 10280 10286 10291 10292 10295 10300 10307 10314 10322 10330 10338 10344 10350 10356 10360 10363 10365 10366 10368 10371 10373 10376 10379 10381 10384 10385 10387 10390 10392
10400 10404 10410 10394 10387 10400 10399 10380 10363 10353 10348 10346 10337 10324 10308 10288 10279 10276 10265 10252 10239 10216 10201 10203 10201 10196 10198 10195 10189 10192 10197 10196 10194 10193 10191 10190 10191 10193 10193 10194 10196 10200 10204 10206 10206 10209 10215 10217 10222 10230 10234 10237 10245 10252 10257 10263 10268 10271 10276 10282 10284 10285 10289 10294 10300 10308 10317 10326 10334 10341 10346 10349 10351 10353 10355 10359 10363 10366 10369 10371 10373 10375 10377 10379 10382 10383
10394 10390 10394 10382 10375 10387 10388 10369 10351 10341 10336 10334 10329 10313 10291 10273 10268 10266 10255 10244 10231 10212 10198 10192 10187 10187 10186 10177 10174 10180 10183 10183 10183 10183 10182 10179 10180 10182 10182 10184 10188 10190 10193 10194 10193 10197 10203 10207 10213 10221 10223 10228 10236 10243 10249 10255 10259 10262 10267 10271 10273 10277 10281 10285 10290 10298 10306 10316 10325 10330 10333 10337 10340 10343 10347 10352 10356 10359 10361 10363 10365 10368 10370 10371 10373 10374
10386 10376 10378 10368 10358 10369 10373 10354 10337 10329 10323 10318 10311 10295 10275 10260 10257 10255 10246 10235 10217 10201 10198 10191 10178 10177 10178 10168 10163 10167 10170 10171 10172 10173 10172 10169 10170 10172 10172 10176 10181 10182 10183 10183 10183 10188 10194 10198 10205 10211 10215 10221 10228 10234 10239 10243 10247 10252 10257 10262 10266 10270 10273 10276 10281 10288 10296 10305 10313 10317 10321 10325 10330 10334 10339 10344 10348 10351 10353 10355 10358 10360 10361 10363 10365 10367
10375 10361 10360 10350 10338 10346 10351 10335 10323 10319 10312 10307 10293 10272 10257 10248 10244 10242 10238 10229 10207 10186 10186 10187 10176 10171 10171 10164 10158 10157 10157 10160 10161 10161 10161 10159 10159 10161 10163 10167 10170 10172 10174 10175 10176 10179 10185 10190 10195 10201 10207 10213 10219 10224 10228 10232 10235 10241 10247 10254 10261 10265 10266 10268 10271 10277 10285 10292 10298 10303 10309 10315 10320 10325 10331 10335 10338 10342 10345 10347 10350 10352 10354 10356 10357 10359
10358 10342 10336 10327 10314 10319 10323 10312 10306 10303 10297 10292 10275 10250 10235 10228 10226 10224 10223 10222 10204 10176 10169 10173 10167 10162 10161 10157 10153 10149 10147 10149 10151 10150 10149 10148 10147 10150 10154 10157 10159 10162 10165 10166 10167 10171 10176 10180 10185 10191 10197 10203 10208 10212 10216 10220 10225 10232 10240 10247 10253 10258 10260 10261 10264 10268 10273 10279 10284 10291 10298 10304 10310 10315 10321 10325 10329 10333 10337 10340 10342 10344 10345 10346 10348 10350
10338 10322 10313 10306 10295 10293 10293 10289 10288 10287 10283 10273 10252 10229 10211 10202 10202 10202 10203 10206 10191 10165 10162 10167 10158 10149 10147 10147 10146 10143 10140 10141 10142 10141 10139 10137 10137 10139 10142 10146 10148 10152 10156 10158 10160 10163 10166 10170 10175 10181 10187 10191 10196 10201 10205 10210 10215 10223 10231 10237 10241 10247 10252 10253 10255 10259 10264 10268 10273 10280 10287 10294 10300 10306 10311 10315 10319 10324 10329 10332 10333 10334 10336 10337 10339 10342
10318 10307 10298 10292 10285 10276 10270 10269 10269 10269 10269 10257 10232 10212 10196 10187 10187 10184 10186 10192 10169 10142 10150 10162 10152 10141 10136 10134 10136 10136 10135 10136 10134 10131 10129 10128 10130 10132 10133 10135 10136 10140 10146 10150 10153 10155 10157 10161 10166 10172 10177 10181 10186 10191 10195 10200 10206 10212 10221 10228 10233 10240 10244 10246 10249 10253 10257 10260 10264 10270 10277 10284 10291 10297 10301 10306 10311 10316 10321 10322 10324 10326 10328 10330 10331 10333
10305 10295 10287 10280 10276 10265 10252 10256 10256 10251 10253 10241 10215 10198 10185 10177 10177 10173 10179 10187 10156 10124 10137 10151 10143 10137 10131 10125 10127 10127 10129 10131 10126 10119 10118 10121 10124 10125 10126 10126 10126 10129 10135 10141 10144 10147 10149 10153 10157 10162 10167 10172 10177 10182 10184 10190 10197 10204 10213 10220 10226 10231 10236 10240 10245 10249 10252 10255 10259 10266 10272 10278 10283 10288 10292 10297 10303 10308 10311 10313 10316 10318 10320 10321 10322 10324
10301 10287 10276 10268 10268 10256 10239 10244 10248 10242 10241 10227 10202 10190 10178 10166 10164 10162 10172 10180 10149 10119 10130 10138 10133 10132 10126 10119 10120 10119 10122 10126 10117 10108 10108 10113 10117 10119 10120 10121 10120 10121 10126 10131 10136 10138 10141 10146 10149 10153 10158 10163 10168 10172 10175 10181 10189 10197 10204 10211 10217 10222 10227 10233 10240 10245 10249 10254 10260 10265 10269 10272 10275 10279 10283 10289 10295 10299 10303 10305 10308 10310 10311 10312 10314 10316
10301 10284 10269 10258 10255 10246 10233 10233 10233 10229 10225 10206 10188 10185 10172 10155 10154 10155 10160 10163 10140 10118 10123 10125 10123 10124 10118 10113 10115 10112 10115 10120 10110 10099 10101 10107 10111 10113 10114 10116 10116 10116 10119 10124 10128 10131 10134 10138 10141 10144 10149 10153 10158 10163 10167 10174 10182 10189 10195 10201 10207 10213 10219 10227 10236 10241 10247 10253 10258 10261 10264 10266 10269 10272 10276 10282 10287 10292 10295 10296 10299 10301 10302 10304 10305 10307
10291 10276 10264 10254 10245 10236 10230 10226 10221 10215 10202 10179 10172 10178 10164 10146 10147 10148 10150 10150 10132 10115 10113 10111 10112 10114 10109 10108 10110 10106 10109 10112 10103 10094 10095 10101 10105 10106 10108 10110 10111 10113 10115 10117 10122 10126 10129 10133 10135 10138 10141 10144 10149 10154 10159 10167 10174 10179 10185 10191 10197 10205 10214 10223 10230 10234 10240 10246 10250 10253 10256 10258 10261 10266 10270 10275 10279 10282 10285 10287 10289 10292 10293 10294 10296 10298
10274 10259 10252 10247 10240 10233 10226 10222 10220 10212 10186 10158 10156 10162 10148 10138 10140 10136 10136 10142 10130 10113 10105 10099 10101 10103 10098 10101 10105 10101 10101 10104 10098 10089 10089 10094 10098 10099 10101 10103 10105 10107 10110 10111 10116 10120 10123 10128 10131 10132 10135 10138 10141 10146 10153 10160 10166 10171 10177 10183 10189 10199 10209 10217 10221 10224 10228 10232 10236 10241 10245 10248 10253 10258 10262 10266 10270 10272 10275 10277 10280 10283 10284 10286 10288 10289
10252 10241 10235 10231 10230 10227 10219 10212 10215 10210 10181 10150 10149 10150 10132 10127 10135 10129 10123 10128 10124 10113 10104 10095 10093 10093 10090 10093 10098 10096 10094 10095 10092 10086 10083 10087 10091 10091 10093 10095 10097 10100 10103 10105 10110 10114 10118 10122 10125 10127 10130 10133 10135 10139 10145 10153 10159 10163 10169 10176 10184 10194 10201 10204 10208 10210 10213 10218 10222 10228 10235 10239 10244 10250 10253 10257 10260 10261 10264 10267 10270 10274 10276 10278 10279 10281
10230 10218 10215 10215 10215 10214 10207 10199 10198 10200 10181 10148 10140 10143 10127 10115 10122 10124 10118 10115 10109 10104 10101 10095 10087 10084 10083 10085 10089 10089 10087 10085 10085 10082 10079 10079 10082 10083 10085 10086 10088 10093 10096 10098 10102 10107 10110 10115 10118 10121 10124 10127 10130 10133 10137 10144 10151 10155 10161 10169 10177 10184 10187 10190 10195 10199 10203 10207 10212 10219 10226 10230 10235 10240 10244 10246 10248 10251 10254 10258 10261 10264 10267 10269 10272 10274
10211 10194 10190 10199 10202 10196 10192 10187 10175 10176 10174 10146 10127 10133 10129 10112 10107 10109 10110 10108 10098 10090 10092 10091 10082 10075 10076 10078 10080 10080 10079 10076 10075 10076 10075 10074 10074 10074 10076 10078 10080 10084 10088 10090 10094 10098 10102 10106 10110 10113 10117 10120 10124 10127 10131 10137 10145 10150 10156 10163 10168 10172 10176 10182 10188 10192 10197 10203 10208 10213 10218 10222 10226 10230 10233 10235 10238 10242 10245 10249 10252 10254 10257 10261 10264 10266
10197 10182 10173 10183 10189 10180 10174 10170 10157 10154 10156 10136 10117 10121 10123 10113 10104 10097 10097 10099 10092 10082 10081 10081 10076 10068 10065 10068 10071 10071 10070 10068 10067 10069 10069 10068 10067 10067 10069 10071 10073 10076 10080 10082 10085 10089 10093 10098 10102 10105 10109 10113 10117 10121 10125 10131 10140 10146 10151 10155 10159 10163 10169 10175 10181 10187 10194 10201 10205 10209 10212 10215 10218 10221 10224 10226 10228 10232 10236 10240 10243 10245 10248 10252 10255 10257
10180 10175 10168 10171 10177 10174 10166 10155 10145 10145 10142 10127 10115 10113 10110 10107 10103 10092 10085 10086 10084 10079 10075 10072 10070 10064 10056 10056 10062 10063 10063 10061 10061 10061 10061 10061 10060 10060 10062 10065 10066 10068 10071 10074 10077 10081 10085 10090 10093 10097 10101 10105 10110 10115 10120 10126 10134 10140 10145 10148 10152 10158 10164 10168 10175 10183 10190 10196 10200 10203 10205 10208 10211 10214 10216 10218 10219 10222 10227 10232 10234 10236 10239 10243 10246 10249
10166 10165 10164 10162 10164 10168 10164 10150 10139 10136 10129 10117 10114 10110 10100 10097 10097 10088 10079 10075 10071 10071 10069 10065 10063 10059 10051 10049 10052 10054 10056 10055 10053 10053 10054 10054 10054 10053 10053 10057 10060 10061 10064 10067 10069 10073 10078 10082 10085 10089 10094 10098 10103 10109 10116 10121 10127 10132 10136 10141 10148 10153 10158 10163 10169 10176 10182 10188 10192 10195 10197 10200 10204 10207 10209 10210 10212 10216 10220 10224 10226 10228 10232 10235 10238 10241
10158 10155 10154 10151 10150 10150 10146 10139 10134 10128 10113 10102 10107 10107 10096 10090 10087 10077 10070 10068 10064 10062 10062 10059 10056 10052 10047 10044 10044 10047 10049 10047 10043 10045 10048 10048 10047 10045 10045 10050 10053 10055 10058 10061 10063 10067 10071 10074 10077 10082 10087 10091 10096 10103 10111 10116 10120 10123 10128 10136 10144 10149 10153 10159 10164 10169 10174 10179 10183 10186 10189 10193 10197 10200 10202 10205 10207 10210 10214 10218 10219 10221 10225 10229 10232 10233
10148 10148 10142 10139 10141 10139 10129 10119 10120 10121 10104 10088 10091 10097 10092 10087 10083 10070 10060 10058 10056 10054 10053 10052 10049 10045 10043 10041 10038 10040 10042 10038 10034 10039 10044 10043 10041 10038 10038 10043 10046 10048 10051 10054 10057 10060 10064 10068 10071 10075 10080 10085 10090 10098 10106 10110 10113 10117 10123 10131 10139 10144 10150 10155 10159 10163 10167 10171 10176 10179 10183 10188 10191 10194 10196 10199 10201 10205 10209 10212 10213 10215 10219 10223 10224 10225
10136 10137 10131 10123 10125 10131 10125 10109 10105 10111 10102 10082 10076 10079 10078 10076 10073 10064 10055 10052 10049 10046 10046 10047 10043 10038 10036 10036 10033 10034 10035 10031 10029 10033 10037 10036 10034 10032 10033 10037 10039 10041 10044 10048 10051 10054 10058 10062 10065 10068 10073 10078 10084 10092 10099 10104 10107 10111 10118 10126 10134 10140 10145 10150 10153 10156 10160 10165 10169 10173 10176 10180 10183 10186 10188 10191 10194 10197 10201 10204 10205 10207 10210 10212 10213 10215
10129 10126 10120 10112 10109 10116 10118 10103 10091 10094 10094 10083 10072 10069 10066 10064 10059 10051 10046 10046 10045 10041 10040 10042 10040 10032 10028 10027 10026 10030 10032 10027 10023 10027 10030 10028 10027 10026 10027 10031 10034 10035 10038 10042 10045 10048 10052 10056 10058 10062 10067 10073 10079 10086 10092 10098 10103 10107 10113 10120 10128 10133 10138 10142 10146 10150 10154 10158 10162 10165 10168 10171 10174 10177 10180 10183 10185 10188 10190 10193 10196 10197 10199 10201 10203 10205
10125 10115 10109 10104 10099 10102 10105 10094 10081 10078 10079 10075 10070 10065 10062 10060 10054 10044 10036 10036 10037 10035 10033 10035 10037 10033 10025 10019 10016 10022 10029 10025 10018 10020 10024 10022 10021 10021 10021 10024 10029 10031 10034 10038 10041 10043 10046 10049 10052 10057 10062 10067 10073 10079 10086 10092 10097 10101 10107 10114 10120 10125 10130 10134 10138 10143 10147 10151 10154 10156 10159 10163 10166 10168 10171 10174 10176 10178 10180 10183 10185 10186 10188 10191 10193 10195